Regional Weather Roundup
Issued by NWS

Home | Current Version | Previous Version | Graphics & Text | Print | Product List | Glossary On
Versions: 1 2 3 4 5 6 7 8 9 10 11 12 13 14 15 16 17 18 19 20 21 22 23 24 25 26 27
000
ASUS45 KBOU 040607
RWRCO

WEATHER ROUNDUP FOR COLORADO
NATIONAL WEATHER SERVICE DENVER/BOULDER CO
1100 PM MST SAT DEC 03 2016

NOTE: "FAIR" INDICATES FEW OR NO CLOUDS BELOW 12000 FEET WITH NO
SIGNIFICANT WEATHER AND/OR OBSTRUCTIONS TO VISIBILITY.

COZ001>005-013-030-031-040700-
...NORTHWEST COLORADO...

CITY           SKY/WX    TMP DP  RH WIND       PRES   REMARKS
CRAIG          MOCLDY    19  12  74 S5        30.18F WCI  12
HAYDEN         FAIR      21  12  68 CALM      30.17F
MEEKER         FAIR       7   2  80 NE5       30.20R WCI  -2
MOUNT WERNER   NOT AVBL
STEAMBOAT SPGS CLOUDY    15  12  90 CALM      30.16S
WALDEN           N/A     14  10  85 S9        30.09F WCI   2
$$

COZ006>008-011-040700-
...WEST CENTRAL VALLEYS...

CITY           SKY/WX    TMP DP  RH WIND       PRES   REMARKS
GRAND JUNCTION FAIR      21  17  84 E6        30.24R WCI  13
MONTROSE       FAIR      20  13  74 SE9       30.24S WCI   9
EAGLE          FAIR      14   8  77 E8        30.22R WCI   3
RIFLE          FAIR      18  13  80 SW3       30.24R
DELTA          NOT AVBL
NUCLA          FAIR      21  12  68 SE5       30.23S WCI  15
$$

COZ017>023-064>068-040700-
...SOUTHWEST COLORADO...

CITY           SKY/WX    TMP DP  RH WIND       PRES   REMARKS
DURANGO        FAIR      20  17  88 NE8       30.08S WCI  10
CORTEZ         FAIR      20  13  74 E7        30.13S WCI  11
PAGOSA SPRINGS FAIR      19  18  97 CALM      30.08S
TELLURIDE      FAIR      13   8  80 SE7       30.15S WCI   3
WOLF CREEK PAS FAIR      12 -13  31 NW10G23   30.08F WCI  -1
$$

COZ009-010-012-014-032>034-037-058>063-040700-
...CENTRAL COLORADO...

CITY           SKY/WX    TMP DP  RH WIND       PRES   REMARKS
ASPEN          FAIR      14   8  77 S5        30.16R WCI   6
BUENA VISTA    FAIR      16   4  59 SE5       30.07S WCI   9
COPPER MTN     MOCLDY     9   0  66 W3        30.03R
BERTHOUD PASS  CLOUDY     0 -13  55 MISG      29.93R
COTTONWOOD PAS FAIR      21   0  39 SE7       30.03R WCI  13
GUNNISON       FAIR       9   4  80 CALM      30.17S
KREMMLING      CLOUDY    25  19  80 NW6       30.16R WCI  18
LEADVILLE      FAIR       4  -2  76 N9        30.08R WCI -10
MONARCH PASS   CLOUDY     5   1  85 SW28      30.10F WCI -18
SALIDA         FAIR      18   8  66 W7        30.16F WCI   8
SUNLIGHT       FAIR       7   3  85 SW6       30.14R WCI  -3
WILKERSON PASS FAIR       9   0  66 NW9       30.01S WCI  -5
$$

COZ069>075-040700-
...SAN LUIS VALLEY/SANGRE DE CRISTO MOUNTAINS...

CITY           SKY/WX    TMP DP  RH WIND       PRES   REMARKS
ALAMOSA        MOCLDY     3   1  91 W6        30.10F WCI  -8
LA VETA PASS   FAIR      16  12  86 NE15      30.05S WCI   1
SAGUACHE       FAIR      21   3  45 NW18      30.10F WCI   6
$$

COZ035-036-038>040-040700-
...NORTHERN COLORADO FRONT RANGE...

CITY           SKY/WX    TMP DP  RH WIND       PRES   REMARKS
DENVER INTL AP FAIR      27  10  49 SW6       30.03S WCI  20
DMNS CITY PARK   N/A     31   4  32 MISG      30.05R
AURORA         PTCLDY    21   9  60 SW7       30.04S WCI  12
FRONT RANGE AP FAIR      28  14  54 SW8       30.04S WCI  20
ERIE MUNI ARPT FAIR      19   9  67 SE3       30.04R
BOULDER MUN AP FAIR      34   7  32 W17G23    30.03R WCI  23
CENTENNIAL     FAIR      25   7  46 W5        30.03S WCI  19
BROOMFIELD     FAIR      32   7  34 W16       30.03S WCI  21
FORT COLLINS   FAIR      19  12  73 S6        30.04S WCI  11
LONGMONT       FAIR      20   9  62 CALM      30.06R
$$

COZ041-046-047-076>085-087-088-040700-
...PIKES PEAK/PALMER DIVIDE AND SOUTHERN FOOTHILLS...

CITY           SKY/WX    TMP DP  RH WIND       PRES   REMARKS
COLO. SPRINGS  FAIR      20   8  60 CALM      30.05F
A. F. ACADEMY  FAIR      20   9  61 E9        30.02F WCI   9
SCHRIEVER AFB  NOT AVBL
ELLICOTT       FAIR       1 N/A N/A CALM      30.03F
FALCON         FAIR      17   8  67 NW6       30.03F WCI   9
FORT CARSON    FAIR      27   9  47 SW6       30.03F WCI  20
LIMON          FAIR       9   7  92 N5        30.05F WCI   1
MONUMENT HILL  FAIR      18   9  68 SW6       30.04S WCI   9
TRINIDAD       FAIR      19  12  74 W9        30.08R WCI   8
$$

COZ042>045-048>051-090-091-040700-
...NORTHEAST COLORADO...

CITY           SKY/WX    TMP DP  RH WIND       PRES   REMARKS
GREELEY ARPT   FAIR      17  11  77 W3        30.06R
AKRON          FAIR      24  10  55 NW7       30.02F WCI  16
BURLINGTON     FAIR      21  11  65 NW10      30.05R WCI  10
WRAY           NOT AVBL
STERLING       FAIR      28  14  54 NW12      30.02S WCI  18
HOLYOKE        FAIR      28  16  59 W9        30.03S WCI  20
FORT MORGAN    FAIR      27  10  47 W12       30.04S WCI  17
$$

COZ086-089-092>099-040700-
...SOUTHEAST COLORADO...

CITY           SKY/WX    TMP DP  RH WIND       PRES   REMARKS
PUEBLO         FAIR      21  12  68 CALM      30.07F
LA JUNTA       FAIR      23  18  81 W7        30.09R WCI  15
LAMAR          FRZ RAIN  22  20  92 CALM      30.07R VSB 1/4
SPRINGFIELD      N/A     22  22 100 W9        30.03S WCI  12
$$




USA.gov is the U.S. government's official web portal to all federal, state and local government web resources and services.